Weather in Starodubskoe

Russia / Sakhalin District     47°24′39″N   142°49′03″E
temp.,
°C
wind,
m/s
gust,
m/s
humid.,
%
clouds,
%
prec.,
mm/h
press.,
hPa
HPBL,
m
6 march, sat
sat623:00−4nw4785100 2.6 1009283
02:00−8nnw5888100 0.3 1012607
05:00−11n4791100 1.3 1014628
08:00−14nnw6888100 0.6 1018706
11:00−15nnw797270 0.6 1021971
14:00−14n358767 0.2 1020712
17:00−12nw7116883 0.6 10201608
20:00−14wnw3682100 0.1 1021367
7 march, sun
sun723:00−15w378666 0.1 1022247
02:00−14w368598 0.3 1022365
05:00−15wsw368260 0.3 1022172
08:00−15sw44840 0.0 102284
11:00−10wsw47781 0.0 1023652
14:00−7w586458 0.0 10211363
17:00−7w686879 0.1 10191304
20:00−10wsw2579100 0.0 1019228
8 march, mon
mon823:00−10sw2387100 0.0 101994
02:00−10wsw1190100 0.0 101858
05:00−11sw2292100 0.0 101838
08:00−11w228294 0.0 101843
11:00−7wnw257250 0.0 1020696
14:00−4wnw476468 0.0 10201264
17:00−4w466635 0.0 1020836
20:00−8sw34800 0.0 102048
9 march, tue
tue923:00−9sw47810 0.0 1020178
02:00−5sw512800 0.0 1019293
05:00−4wsw613770 0.0 1018319
08:00−5wsw49810 0.0 1017163
11:000sw6127735 0.0 1016779
14:00+1sw7127867 0.0 1015727
17:00+1sw6137981 0.0 1012704
20:00−2s511831 0.0 1010317
10 march, wed
wed1023:000s4128550 0.0 1009526
02:00−1s4895100 0.3 1006203
05:00−1ssw2298100 1.3 100333
08:00−2w1194100 0.1 100322
11:000nw3792100 0.5 1004467
14:00−1nw61079100 0.0 1005613
17:00−3nw71178100 0.0 1007633
20:00−4nw4793100 0.6 1011368